Flag for Venezuela Weather past 2 weeks in Caracas, Venezuela

Now
77 °F

Passing clouds.


Feels Like: 78 °F
Forecast: 67 / 79 °F
Wind: No wind

Location: Caracas / Maiquetia Aerop. Intl. Simon Bolivar

Current Time: Apr 21, 2015 at 1:06:16 AM

Latest Report: Apr 21, 2015 at 12:30 AM


Visibility: N/A

Pressure: 29.92 "Hg

Humidity: 83%

Dew point: 72 °F

Location of CaracasLocation

Historic Weather in Caracas — Graph

°F

Caracas temperature yesterday

Maximum temperature yesterday: 84 °F (at 10:30 AM)
Minimum temperature yesterday: 75 °F (at 2:30 AM)
Average temperature yesterday: 80 °F

Past Weeks' High & Low Weather Summary

 TemperatureHumidityPressure
High88 °F (Apr 12, 11:30 AM)100% (Apr 9, 1:30 AM)30.01 "Hg (Apr 9, 1:30 AM)
Low73 °F (Apr 7, 3:30 AM)62% (Apr 14, 12:30 PM)29.83 "Hg (Apr 8, 4:30 PM)
Average80 °F81%29.93 "Hg
* Reported Apr 5 11:30 PM — Apr 20 11:30 PM, Caracas, Weather by CustomWeather, © 2015

Note: Actual official high and low records may vary slightly from our data, if they occured in-between our weather recording intervals... More about our weather records

Advertising

Caracas weather history for previous 24 hours

 ConditionsComfort  
Time TempWeatherWind HumidityBarometerVisibility
11:30 PM
Mon, Apr 20
79 °FPassing clouds.No wind79%29.95 "HgN/A
10:30 PM79 °FPassing clouds.No wind84%29.95 "HgN/A
9:30 PM77 °FPassing clouds.5 mph89%29.92 "HgN/A
8:30 PM79 °FPassing clouds.5 mph79%29.89 "HgN/A
7:30 PM79 °FPassing clouds.7 mph84%29.89 "HgN/A
6:30 PM82 °FPassing clouds.6 mph79%29.86 "HgN/A
5:30 PM82 °FPartly sunny.7 mph74%29.86 "HgN/A
4:30 PM82 °FPartly sunny.6 mph79%29.89 "HgN/A
3:30 PM82 °FPartly sunny.5 mph79%29.92 "HgN/A
2:30 PM84 °FPartly sunny.7 mph74%29.92 "HgN/A
1:30 PM84 °FPartly sunny.6 mph79%29.95 "HgN/A
12:30 PM82 °FPartly sunny.3 mph79%29.95 "HgN/A
11:30 AM84 °FPartly sunny.5 mph74%29.95 "HgN/A
10:30 AM84 °FPartly sunny.2 mph74%29.95 "HgN/A
9:30 AM82 °FPartly sunny.5 mph70%29.95 "HgN/A
8:30 AM82 °FPartly sunny.6 mph66%29.92 "HgN/A
7:30 AM79 °FPartly sunny.No wind79%29.89 "HgN/A
6:30 AM75 °FScattered clouds.3 mph89%29.89 "HgN/A
5:30 AM75 °FPassing clouds.No wind89%29.92 "HgN/A
4:30 AM75 °FPassing clouds.No wind89%29.89 "HgN/A
3:30 AM75 °FPassing clouds.No wind89%29.89 "HgN/A
2:30 AM75 °FPassing clouds.No wind89%29.89 "HgN/A
1:30 AM77 °FPassing clouds.No wind83%29.92 "HgN/A
Weather by CustomWeather, © 2015

See weather overviewHow to use our weather pages